User: anonymous   Login
Location: Chamerau
(49.1969°N, 12.7525°E)
Time: 03:36:40
(UTC+00:00)
Language:

SWAS - Orbit

View from above orbital plane
View from above orbital plane
View from above satellite
View from above satellite

Ground track
Ground track

The orbit data is extracted from the following two-line orbital elements,

1 25560U 98071A   20339.19219254  .00000413  00000-0  47233-4 0  9994
2 25560  69.8985 316.5573 0004448  80.8484 279.3175 14.93956865194595
Epoch (UTC): 04 December 2020 04:36:45
Eccentricity: 0.0004448
inclination: 69.8985°
perigee height: 582 km
apogee height: 589 km
right ascension of ascending node: 316.5573°
argument of perigee: 80.8484°
revolutions per day: 14.93956865
mean anomaly at epoch: 279.3175°
orbit number at epoch: 19459

The dashed part of the orbit path shows where the satellite is in the earth's shadow,  

DLR